PRIVATE WETTERSTATION BILLIGHEIM-ALLFELD                       ZURCK
Wetterdaten: Dienstag, 11.03.2014
Datum Zeit Temp. A. Temp. A. min Temp. A. max Feuchte A. Luftdruck Regen Wind Richtung Richtung Sonnenschein ET Solar Taupunkt Windchill Windben Empfang
11.03.2014 00:00 5,7 C 5,7 C 5,9 C 69 % 1023,3 hPa 0,0 l/m 1,6 km/h (1 Bft) NO 45 0 min 0,025 mm 0 W/m 0,5 C 5,7 C 6,4 km/h (2 Bft) 99 %
11.03.2014 00:10 4,7 C 4,7 C 5,7 C 73 % 1023,3 hPa 0,0 l/m 1,6 km/h (1 Bft) N 360 0 min 0,000 mm 0 W/m 0,3 C 4,7 C 4,8 km/h (1 Bft) 100 %
11.03.2014 00:20 4,3 C 4,2 C 4,7 C 73 % 1023,3 hPa 0,0 l/m 0,0 km/h (0 Bft) N-NW 337 0 min 0,000 mm 0 W/m -0,1 C 4,3 C 3,2 km/h (1 Bft) 99 %
11.03.2014 00:30 4,9 C 4,3 C 4,9 C 72 % 1023,5 hPa 0,0 l/m 0,0 km/h (0 Bft) NO 45 0 min 0,000 mm 0 W/m 0,3 C 4,9 C 4,8 km/h (1 Bft) 100 %
11.03.2014 00:40 4,8 C 4,8 C 4,9 C 72 % 1023,5 hPa 0,0 l/m 0,0 km/h (0 Bft) N-NO 22 0 min 0,000 mm 0 W/m 0,2 C 4,8 C 4,8 km/h (1 Bft) 99 %
11.03.2014 00:50 4,6 C 4,6 C 4,8 C 72 % 1023,6 hPa 0,0 l/m 1,6 km/h (1 Bft) NO 45 0 min 0,000 mm 0 W/m -0,0 C 4,6 C 6,4 km/h (2 Bft) 100 %
11.03.2014 01:00 5,8 C 4,6 C 5,8 C 67 % 1023,7 hPa 0,0 l/m 3,2 km/h (1 Bft) NO 45 0 min 0,025 mm 0 W/m 0,2 C 5,8 C 6,4 km/h (2 Bft) 100 %
11.03.2014 01:10 6,7 C 5,8 C 6,7 C 64 % 1023,7 hPa 0,0 l/m 1,6 km/h (1 Bft) NO 45 0 min 0,000 mm 0 W/m 0,4 C 6,7 C 4,8 km/h (1 Bft) 100 %
11.03.2014 01:20 5,7 C 5,7 C 6,7 C 67 % 1023,6 hPa 0,0 l/m 1,6 km/h (1 Bft) NO 45 0 min 0,000 mm 0 W/m 0,1 C 5,7 C 6,4 km/h (2 Bft) 100 %
11.03.2014 01:30 5,0 C 5,0 C 5,7 C 69 % 1023,6 hPa 0,0 l/m 1,6 km/h (1 Bft) NO 45 0 min 0,000 mm 0 W/m -0,2 C 5,0 C 6,4 km/h (2 Bft) 90 %
11.03.2014 01:40 5,4 C 4,9 C 5,4 C 68 % 1023,6 hPa 0,0 l/m 4,8 km/h (1 Bft) NO 45 0 min 0,000 mm 0 W/m -0,0 C 5,4 C 8,0 km/h (2 Bft) 100 %
11.03.2014 01:50 6,3 C 5,5 C 6,3 C 65 % 1023,6 hPa 0,0 l/m 4,8 km/h (1 Bft) NO 45 0 min 0,000 mm 0 W/m 0,2 C 6,3 C 9,7 km/h (2 Bft) 99 %
11.03.2014 02:00 6,8 C 6,3 C 6,8 C 62 % 1023,7 hPa 0,0 l/m 4,8 km/h (1 Bft) NO 45 0 min 0,025 mm 0 W/m 0,0 C 6,8 C 8,0 km/h (2 Bft) 100 %
11.03.2014 02:10 6,8 C 6,8 C 6,8 C 62 % 1023,8 hPa 0,0 l/m 4,8 km/h (1 Bft) NO 45 0 min 0,000 mm 0 W/m 0,0 C 6,8 C 8,0 km/h (2 Bft) 100 %
11.03.2014 02:20 6,6 C 6,6 C 6,8 C 62 % 1023,8 hPa 0,0 l/m 4,8 km/h (1 Bft) NO 45 0 min 0,000 mm 0 W/m -0,1 C 6,6 C 8,0 km/h (2 Bft) 100 %
11.03.2014 02:30 6,5 C 6,5 C 6,6 C 63 % 1023,9 hPa 0,0 l/m 4,8 km/h (1 Bft) NO 45 0 min 0,000 mm 0 W/m -0,0 C 6,5 C 9,7 km/h (2 Bft) 100 %
11.03.2014 02:40 6,5 C 6,4 C 6,5 C 63 % 1024,0 hPa 0,0 l/m 3,2 km/h (1 Bft) NO 45 0 min 0,000 mm 0 W/m -0,0 C 6,5 C 9,7 km/h (2 Bft) 100 %
11.03.2014 02:50 6,4 C 6,4 C 6,5 C 63 % 1024,0 hPa 0,0 l/m 6,4 km/h (2 Bft) NO 45 0 min 0,000 mm 0 W/m -0,1 C 6,4 C 11,3 km/h (2 Bft) 100 %
11.03.2014 03:00 6,3 C 6,3 C 6,4 C 63 % 1024,0 hPa 0,0 l/m 6,4 km/h (2 Bft) NO 45 0 min 0,025 mm 0 W/m -0,2 C 6,3 C 9,7 km/h (2 Bft) 100 %
11.03.2014 03:10 6,4 C 6,3 C 6,4 C 63 % 1024,2 hPa 0,0 l/m 4,8 km/h (1 Bft) NO 45 0 min 0,000 mm 0 W/m -0,1 C 6,4 C 9,7 km/h (2 Bft) 100 %
11.03.2014 03:20 6,1 C 6,1 C 6,4 C 63 % 1024,2 hPa 0,0 l/m 1,6 km/h (1 Bft) NO 45 0 min 0,000 mm 0 W/m -0,4 C 6,1 C 8,0 km/h (2 Bft) 100 %
11.03.2014 03:30 5,9 C 5,9 C 6,1 C 64 % 1024,3 hPa 0,0 l/m 3,2 km/h (1 Bft) NO 45 0 min 0,000 mm 0 W/m -0,4 C 5,9 C 6,4 km/h (2 Bft) 100 %
11.03.2014 03:40 5,6 C 5,6 C 5,9 C 66 % 1024,4 hPa 0,0 l/m 1,6 km/h (1 Bft) NO 45 0 min 0,000 mm 0 W/m -0,2 C 5,6 C 6,4 km/h (2 Bft) 89 %
11.03.2014 03:50 5,2 C 5,2 C 5,6 C 66 % 1024,6 hPa 0,0 l/m 1,6 km/h (1 Bft) NO 45 0 min 0,000 mm 0 W/m -0,6 C 5,2 C 4,8 km/h (1 Bft) 100 %
11.03.2014 04:00 5,0 C 5,0 C 5,2 C 67 % 1024,6 hPa 0,0 l/m 0,0 km/h (0 Bft) NO 45 0 min 0,025 mm 0 W/m -0,6 C 5,0 C 4,8 km/h (1 Bft) 100 %
11.03.2014 04:10 4,9 C 4,9 C 5,0 C 67 % 1024,8 hPa 0,0 l/m 0,0 km/h (0 Bft) NO 45 0 min 0,000 mm 0 W/m -0,7 C 4,9 C 1,6 km/h (1 Bft) 100 %
11.03.2014 04:20 4,7 C 4,7 C 4,9 C 68 % 1024,8 hPa 0,0 l/m 0,0 km/h (0 Bft) NO 45 0 min 0,000 mm 0 W/m -0,7 C 4,7 C 3,2 km/h (1 Bft) 100 %
11.03.2014 04:30 4,4 C 4,4 C 4,7 C 69 % 1024,8 hPa 0,0 l/m 1,6 km/h (1 Bft) NO 45 0 min 0,000 mm 0 W/m -0,8 C 4,4 C 4,8 km/h (1 Bft) 100 %
11.03.2014 04:40 4,1 C 4,1 C 4,4 C 70 % 1024,8 hPa 0,0 l/m 0,0 km/h (0 Bft) NO 45 0 min 0,000 mm 0 W/m -0,9 C 4,1 C 4,8 km/h (1 Bft) 100 %
11.03.2014 04:50 3,9 C 3,9 C 4,1 C 71 % 1024,8 hPa 0,0 l/m 0,0 km/h (0 Bft) N-NO 22 0 min 0,000 mm 0 W/m -0,9 C 3,9 C 3,2 km/h (1 Bft) 100 %
11.03.2014 05:00 3,6 C 3,6 C 3,9 C 72 % 1024,9 hPa 0,0 l/m 0,0 km/h (0 Bft) N-NO 22 0 min 0,025 mm 0 W/m -1,0 C 3,6 C 1,6 km/h (1 Bft) 100 %
11.03.2014 05:10 3,4 C 3,4 C 3,6 C 72 % 1024,9 hPa 0,0 l/m 0,0 km/h (0 Bft) N-NO 22 0 min 0,000 mm 0 W/m -1,2 C 3,4 C 3,2 km/h (1 Bft) 100 %
11.03.2014 05:20 3,6 C 3,4 C 3,6 C 73 % 1024,9 hPa 0,0 l/m 1,6 km/h (1 Bft) NO 45 0 min 0,000 mm 0 W/m -0,8 C 3,6 C 6,4 km/h (2 Bft) 100 %
11.03.2014 05:30 3,7 C 3,6 C 3,7 C 73 % 1025,2 hPa 0,0 l/m 1,6 km/h (1 Bft) NO 45 0 min 0,000 mm 0 W/m -0,7 C 3,7 C 6,4 km/h (2 Bft) 100 %
11.03.2014 05:40 3,8 C 3,7 C 3,8 C 72 % 1025,4 hPa 0,0 l/m 0,0 km/h (0 Bft) NO 45 0 min 0,000 mm 0 W/m -0,8 C 3,8 C 4,8 km/h (1 Bft) 100 %
11.03.2014 05:50 3,8 C 3,8 C 3,9 C 72 % 1025,4 hPa 0,0 l/m 0,0 km/h (0 Bft) NO 45 0 min 0,000 mm 0 W/m -0,8 C 3,8 C 4,8 km/h (1 Bft) 100 %
11.03.2014 06:00 3,6 C 3,6 C 3,8 C 72 % 1025,6 hPa 0,0 l/m 0,0 km/h (0 Bft) NO 45 0 min 0,025 mm 0 W/m -1,0 C 3,6 C 3,2 km/h (1 Bft) 100 %
11.03.2014 06:10 3,4 C 3,4 C 3,6 C 73 % 1025,6 hPa 0,0 l/m 0,0 km/h (0 Bft) NO 45 0 min 0,000 mm 0 W/m -1,0 C 3,4 C 3,2 km/h (1 Bft) 100 %
11.03.2014 06:20 3,2 C 3,2 C 3,4 C 73 % 1025,7 hPa 0,0 l/m 0,0 km/h (0 Bft) NO 45 0 min 0,000 mm 0 W/m -1,2 C 3,2 C 3,2 km/h (1 Bft) 100 %
11.03.2014 06:30 3,1 C 3,1 C 3,2 C 73 % 1025,8 hPa 0,0 l/m 0,0 km/h (0 Bft) NO 45 0 min 0,000 mm 0 W/m -1,3 C 3,1 C 1,6 km/h (1 Bft) 100 %
11.03.2014 06:40 2,9 C 2,9 C 3,1 C 74 % 1026,0 hPa 0,0 l/m 0,0 km/h (0 Bft) NO 45 0 min 0,000 mm 0 W/m -1,3 C 2,9 C 3,2 km/h (1 Bft) 100 %
11.03.2014 06:50 2,8 C 2,8 C 2,9 C 74 % 1026,1 hPa 0,0 l/m 0,0 km/h (0 Bft) NO 45 0 min 0,000 mm 0 W/m -1,4 C 2,8 C 1,6 km/h (1 Bft) 100 %
11.03.2014 07:00 2,8 C 2,8 C 2,8 C 74 % 1026,2 hPa 0,0 l/m 0,0 km/h (0 Bft) N 0 0 min 0,000 mm 9 W/m -1,4 C 2,8 C 0,0 km/h (0 Bft) 100 %
11.03.2014 07:10 3,0 C 2,8 C 3,0 C 74 % 1026,2 hPa 0,0 l/m 0,0 km/h (0 Bft) NO 45 0 min 0,000 mm 14 W/m -1,2 C 3,0 C 3,2 km/h (1 Bft) 100 %
11.03.2014 07:20 2,9 C 2,9 C 3,0 C 75 % 1026,2 hPa 0,0 l/m 0,0 km/h (0 Bft) NO 45 0 min 0,000 mm 19 W/m -1,1 C 2,9 C 3,2 km/h (1 Bft) 90 %
11.03.2014 07:30 2,9 C 2,9 C 2,9 C 75 % 1026,3 hPa 0,0 l/m 0,0 km/h (0 Bft) NO 45 0 min 0,000 mm 28 W/m -1,1 C 2,9 C 1,6 km/h (1 Bft) 100 %
11.03.2014 07:40 2,9 C 2,9 C 2,9 C 75 % 1026,4 hPa 0,0 l/m 0,0 km/h (0 Bft) NO 45 0 min 0,000 mm 37 W/m -1,1 C 2,9 C 3,2 km/h (1 Bft) 100 %
11.03.2014 07:50 3,1 C 2,9 C 3,1 C 75 % 1026,4 hPa 0,0 l/m 0,0 km/h (0 Bft) NO 45 0 min 0,000 mm 44 W/m -0,9 C 3,1 C 3,2 km/h (1 Bft) 100 %
11.03.2014 08:00 3,5 C 3,1 C 3,5 C 75 % 1026,5 hPa 0,0 l/m 0,0 km/h (0 Bft) NO 45 0 min 0,025 mm 111 W/m -0,5 C 3,5 C 4,8 km/h (1 Bft) 100 %
11.03.2014 08:10 4,3 C 3,5 C 4,3 C 71 % 1026,7 hPa 0,0 l/m 0,0 km/h (0 Bft) NO 45 10 min 0,000 mm 185 W/m -0,5 C 4,3 C 4,8 km/h (1 Bft) 100 %
11.03.2014 08:20 5,3 C 4,4 C 5,3 C 70 % 1026,9 hPa 0,0 l/m 0,0 km/h (0 Bft) N-NO 22 10 min 0,000 mm 209 W/m 0,3 C 5,3 C 4,8 km/h (1 Bft) 100 %
11.03.2014 08:30 5,9 C 5,3 C 5,9 C 67 % 1027,0 hPa 0,0 l/m 1,6 km/h (1 Bft) NO 45 10 min 0,000 mm 236 W/m 0,3 C 5,9 C 4,8 km/h (1 Bft) 100 %
11.03.2014 08:40 6,4 C 5,9 C 6,4 C 65 % 1027,0 hPa 0,0 l/m 1,6 km/h (1 Bft) NO 45 10 min 0,000 mm 260 W/m 0,3 C 6,4 C 6,4 km/h (2 Bft) 100 %
11.03.2014 08:50 7,0 C 6,4 C 7,0 C 64 % 1027,1 hPa 0,0 l/m 1,6 km/h (1 Bft) NO 45 10 min 0,000 mm 287 W/m 0,7 C 7,0 C 6,4 km/h (2 Bft) 100 %
11.03.2014 09:00 7,6 C 7,0 C 7,6 C 62 % 1027,2 hPa 0,0 l/m 0,0 km/h (0 Bft) NO 45 10 min 0,102 mm 306 W/m 0,8 C 7,6 C 4,8 km/h (1 Bft) 100 %
11.03.2014 09:10 8,1 C 7,6 C 8,1 C 60 % 1027,3 hPa 0,0 l/m 0,0 km/h (0 Bft) NO 45 10 min 0,000 mm 329 W/m 0,8 C 8,1 C 3,2 km/h (1 Bft) 99 %
11.03.2014 09:20 8,6 C 8,2 C 8,6 C 57 % 1027,4 hPa 0,0 l/m 1,6 km/h (1 Bft) NO 45 10 min 0,000 mm 346 W/m 0,6 C 8,6 C 6,4 km/h (2 Bft) 100 %
11.03.2014 09:30 8,9 C 8,6 C 8,9 C 58 % 1027,3 hPa 0,0 l/m 1,6 km/h (1 Bft) NO 45 10 min 0,000 mm 371 W/m 1,1 C 8,9 C 8,0 km/h (2 Bft) 100 %
11.03.2014 09:40 9,6 C 8,9 C 9,6 C 59 % 1027,3 hPa 0,0 l/m 0,0 km/h (0 Bft) NO 45 10 min 0,000 mm 392 W/m 2,0 C 9,6 C 4,8 km/h (1 Bft) 100 %
11.03.2014 09:50 10,1 C 9,6 C 10,1 C 55 % 1027,5 hPa 0,0 l/m 0,0 km/h (0 Bft) N-NO 22 10 min 0,000 mm 410 W/m 1,5 C 10,1 C 6,4 km/h (2 Bft) 100 %
11.03.2014 10:00 10,4 C 10,1 C 10,4 C 53 % 1027,5 hPa 0,0 l/m 1,6 km/h (1 Bft) NO 45 10 min 0,178 mm 439 W/m 1,2 C 10,4 C 9,7 km/h (2 Bft) 100 %
11.03.2014 10:10 10,7 C 10,4 C 10,7 C 52 % 1027,4 hPa 0,0 l/m 3,2 km/h (1 Bft) NO 45 10 min 0,000 mm 461 W/m 1,3 C 10,7 C 14,5 km/h (3 Bft) 100 %
11.03.2014 10:20 10,9 C 10,7 C 10,9 C 53 % 1027,5 hPa 0,0 l/m 1,6 km/h (1 Bft) NO 45 10 min 0,000 mm 483 W/m 1,7 C 10,9 C 9,7 km/h (2 Bft) 100 %
11.03.2014 10:30 11,2 C 11,0 C 11,2 C 49 % 1027,6 hPa 0,0 l/m 3,2 km/h (1 Bft) NO 45 10 min 0,000 mm 496 W/m 0,9 C 11,2 C 9,7 km/h (2 Bft) 100 %
11.03.2014 10:40 11,4 C 11,2 C 11,4 C 47 % 1027,6 hPa 0,0 l/m 3,2 km/h (1 Bft) NO 45 10 min 0,000 mm 506 W/m 0,5 C 11,4 C 8,0 km/h (2 Bft) 100 %
11.03.2014 10:50 11,9 C 11,5 C 11,9 C 45 % 1027,6 hPa 0,0 l/m 1,6 km/h (1 Bft) NO 45 10 min 0,000 mm 520 W/m 0,4 C 11,9 C 11,3 km/h (2 Bft) 100 %
11.03.2014 11:00 12,3 C 11,9 C 12,3 C 44 % 1027,6 hPa 0,0 l/m 3,2 km/h (1 Bft) NO 45 10 min 0,254 mm 519 W/m 0,4 C 12,3 C 16,1 km/h (3 Bft) 100 %
11.03.2014 11:10 12,5 C 12,3 C 12,6 C 42 % 1027,6 hPa 0,0 l/m 3,2 km/h (1 Bft) NO 45 10 min 0,000 mm 538 W/m -0,1 C 12,5 C 11,3 km/h (2 Bft) 100 %
11.03.2014 11:20 12,6 C 12,5 C 12,7 C 43 % 1027,4 hPa 0,0 l/m 3,2 km/h (1 Bft) NO 45 10 min 0,000 mm 540 W/m 0,4 C 12,6 C 11,3 km/h (2 Bft) 100 %
11.03.2014 11:30 12,6 C 12,6 C 12,6 C 43 % 1027,5 hPa 0,0 l/m 3,2 km/h (1 Bft) NO 45 10 min 0,000 mm 536 W/m 0,4 C 12,6 C 11,3 km/h (2 Bft) 100 %
11.03.2014 11:40 12,8 C 12,6 C 12,8 C 43 % 1027,4 hPa 0,0 l/m 1,6 km/h (1 Bft) NO 45 10 min 0,000 mm 564 W/m 0,5 C 12,8 C 11,3 km/h (2 Bft) 100 %
11.03.2014 11:50 13,1 C 12,8 C 13,1 C 40 % 1027,5 hPa 0,0 l/m 3,2 km/h (1 Bft) NO 45 10 min 0,000 mm 584 W/m -0,2 C 13,1 C 9,7 km/h (2 Bft) 100 %
11.03.2014 12:00 13,2 C 13,1 C 13,2 C 41 % 1027,5 hPa 0,0 l/m 4,8 km/h (1 Bft) NO 45 10 min 0,305 mm 599 W/m 0,2 C 13,2 C 11,3 km/h (2 Bft) 100 %
11.03.2014 12:10 13,3 C 13,2 C 13,3 C 41 % 1027,3 hPa 0,0 l/m 4,8 km/h (1 Bft) NO 45 10 min 0,000 mm 599 W/m 0,3 C 13,3 C 17,7 km/h (3 Bft) 100 %
11.03.2014 12:20 13,7 C 13,3 C 13,7 C 38 % 1027,3 hPa 0,0 l/m 3,2 km/h (1 Bft) NO 45 10 min 0,000 mm 606 W/m -0,4 C 13,7 C 14,5 km/h (3 Bft) 100 %
11.03.2014 12:30 13,9 C 13,7 C 13,9 C 38 % 1027,2 hPa 0,0 l/m 4,8 km/h (1 Bft) NO 45 10 min 0,000 mm 612 W/m -0,2 C 13,9 C 12,9 km/h (3 Bft) 100 %
11.03.2014 12:40 14,2 C 13,9 C 14,2 C 37 % 1027,2 hPa 0,0 l/m 4,8 km/h (1 Bft) NO 45 10 min 0,000 mm 613 W/m -0,3 C 14,2 C 9,7 km/h (2 Bft) 100 %
11.03.2014 12:50 14,6 C 14,2 C 14,6 C 38 % 1027,2 hPa 0,0 l/m 3,2 km/h (1 Bft) NO 45 10 min 0,000 mm 615 W/m 0,4 C 14,6 C 14,5 km/h (3 Bft) 100 %
11.03.2014 13:00 14,8 C 14,6 C 14,8 C 35 % 1027,2 hPa 0,0 l/m 4,8 km/h (1 Bft) NO 45 10 min 0,356 mm 615 W/m -0,5 C 14,8 C 12,9 km/h (3 Bft) 99 %
11.03.2014 13:10 15,1 C 14,8 C 15,1 C 34 % 1027,1 hPa 0,0 l/m 3,2 km/h (1 Bft) NO 45 10 min 0,000 mm 615 W/m -0,6 C 15,1 C 11,3 km/h (2 Bft) 100 %
11.03.2014 13:20 15,1 C 15,1 C 15,1 C 35 % 1027,0 hPa 0,0 l/m 6,4 km/h (2 Bft) NO 45 10 min 0,000 mm 610 W/m -0,2 C 15,1 C 16,1 km/h (3 Bft) 100 %
11.03.2014 13:30 15,2 C 15,1 C 15,2 C 36 % 1027,0 hPa 0,0 l/m 6,4 km/h (2 Bft) NO 45 10 min 0,000 mm 592 W/m 0,2 C 15,2 C 17,7 km/h (3 Bft) 100 %
11.03.2014 13:40 15,3 C 15,2 C 15,4 C 33 % 1026,9 hPa 0,0 l/m 6,4 km/h (2 Bft) NO 45 10 min 0,000 mm 575 W/m -0,9 C 15,3 C 19,3 km/h (3 Bft) 100 %
11.03.2014 13:50 15,4 C 15,3 C 15,4 C 34 % 1027,0 hPa 0,0 l/m 4,8 km/h (1 Bft) NO 45 10 min 0,000 mm 547 W/m -0,4 C 15,4 C 20,9 km/h (4 Bft) 100 %
11.03.2014 14:00 15,8 C 15,4 C 15,8 C 32 % 1026,8 hPa 0,0 l/m 3,2 km/h (1 Bft) NO 45 10 min 0,356 mm 571 W/m -0,9 C 15,8 C 14,5 km/h (3 Bft) 100 %
11.03.2014 14:10 16,1 C 15,8 C 16,1 C 32 % 1026,7 hPa 0,0 l/m 4,8 km/h (1 Bft) NO 45 10 min 0,000 mm 563 W/m -0,6 C 16,1 C 16,1 km/h (3 Bft) 100 %
11.03.2014 14:20 16,3 C 16,1 C 16,3 C 31 % 1026,8 hPa 0,0 l/m 3,2 km/h (1 Bft) NO 45 10 min 0,000 mm 543 W/m -0,8 C 16,3 C 16,1 km/h (3 Bft) 100 %
11.03.2014 14:30 16,2 C 16,2 C 16,4 C 29 % 1026,9 hPa 0,0 l/m 6,4 km/h (2 Bft) NO 45 10 min 0,000 mm 527 W/m -1,8 C 16,2 C 16,1 km/h (3 Bft) 100 %
11.03.2014 14:40 16,4 C 16,2 C 16,4 C 31 % 1026,9 hPa 0,0 l/m 1,6 km/h (1 Bft) NO 45 10 min 0,000 mm 512 W/m -0,8 C 16,4 C 16,1 km/h (3 Bft) 100 %
11.03.2014 14:50 16,6 C 16,4 C 16,6 C 30 % 1026,8 hPa 0,0 l/m 4,8 km/h (1 Bft) O-NO 67 10 min 0,000 mm 492 W/m -1,0 C 16,6 C 16,1 km/h (3 Bft) 100 %
11.03.2014 15:00 16,7 C 16,6 C 16,7 C 28 % 1026,7 hPa 0,0 l/m 3,2 km/h (1 Bft) NO 45 10 min 0,305 mm 475 W/m -1,9 C 16,7 C 24,1 km/h (4 Bft) 100 %
11.03.2014 15:10 16,6 C 16,6 C 16,7 C 30 % 1026,7 hPa 0,0 l/m 3,2 km/h (1 Bft) NO 45 10 min 0,000 mm 457 W/m -1,0 C 16,6 C 17,7 km/h (3 Bft) 100 %
11.03.2014 15:20 16,6 C 16,6 C 16,7 C 30 % 1026,7 hPa 0,0 l/m 4,8 km/h (1 Bft) NO 45 10 min 0,000 mm 434 W/m -1,0 C 16,6 C 19,3 km/h (3 Bft) 100 %
11.03.2014 15:30 16,2 C 16,2 C 16,6 C 30 % 1026,8 hPa 0,0 l/m 6,4 km/h (2 Bft) NO 45 10 min 0,000 mm 411 W/m -1,4 C 16,2 C 20,9 km/h (4 Bft) 100 %
11.03.2014 15:40 16,4 C 16,2 C 16,4 C 31 % 1026,9 hPa 0,0 l/m 1,6 km/h (1 Bft) NO 45 10 min 0,000 mm 390 W/m -0,8 C 16,4 C 11,3 km/h (2 Bft) 100 %
11.03.2014 15:50 16,4 C 16,4 C 16,5 C 32 % 1026,9 hPa 0,0 l/m 1,6 km/h (1 Bft) NO 45 10 min 0,000 mm 362 W/m -0,3 C 16,4 C 17,7 km/h (3 Bft) 100 %
11.03.2014 16:00 16,5 C 16,4 C 16,5 C 30 % 1026,9 hPa 0,0 l/m 1,6 km/h (1 Bft) O 90 0 min 0,203 mm 128 W/m -1,1 C 16,5 C 17,7 km/h (3 Bft) 100 %
11.03.2014 16:10 16,3 C 16,3 C 16,5 C 31 % 1026,8 hPa 0,0 l/m 3,2 km/h (1 Bft) NO 45 0 min 0,000 mm 47 W/m -0,8 C 16,3 C 17,7 km/h (3 Bft) 99 %
11.03.2014 16:20 16,2 C 16,2 C 16,3 C 32 % 1026,9 hPa 0,0 l/m 3,2 km/h (1 Bft) NO 45 0 min 0,000 mm 46 W/m -0,5 C 16,2 C 14,5 km/h (3 Bft) 100 %
11.03.2014 16:40 16,1 C 16,1 C 16,3 C 33 % 1026,9 hPa 0,0 l/m 0,3 km/h (0 Bft) NO 52 0 min 0,000 mm 39 W/m -0,2 C 16,1 C 6,4 km/h (2 Bft) 97 %
11.03.2014 16:50 15,9 C 15,9 C 16,1 C 34 % 1026,9 hPa 0,0 l/m 0,1 km/h (0 Bft) N-NO 27 0 min 0,000 mm 37 W/m 0,1 C 15,9 C 4,8 km/h (1 Bft) 98 %
11.03.2014 17:00 15,8 C 15,8 C 15,9 C 34 % 1026,8 hPa 0,0 l/m 0,9 km/h (0 Bft) NO 49 0 min 0,027 mm 33 W/m -0,0 C 15,8 C 11,3 km/h (2 Bft) 98 %
11.03.2014 17:10 15,6 C 15,6 C 15,8 C 33 % 1026,9 hPa 0,0 l/m 0,9 km/h (0 Bft) O-NO 73 0 min 0,000 mm 32 W/m -0,6 C 15,6 C 11,3 km/h (2 Bft) 100 %
11.03.2014 17:20 15,3 C 15,3 C 15,6 C 32 % 1026,9 hPa 0,0 l/m 2,0 km/h (1 Bft) NO 36 0 min 0,000 mm 28 W/m -1,3 C 15,3 C 11,3 km/h (2 Bft) 100 %
11.03.2014 17:30 15,1 C 15,1 C 15,3 C 32 % 1027,0 hPa 0,0 l/m 2,3 km/h (1 Bft) O-SO 118 0 min 0,000 mm 26 W/m -1,5 C 15,1 C 8,0 km/h (2 Bft) 100 %
11.03.2014 17:40 15,1 C 15,1 C 15,1 C 33 % 1027,0 hPa 0,0 l/m 0,6 km/h (0 Bft) NO 48 0 min 0,000 mm 23 W/m -1,0 C 15,1 C 11,3 km/h (2 Bft) 99 %
11.03.2014 17:50 14,8 C 14,8 C 15,1 C 34 % 1027,1 hPa 0,0 l/m 0,8 km/h (0 Bft) N-NW 348 0 min 0,000 mm 18 W/m -0,9 C 14,8 C 8,0 km/h (2 Bft) 100 %
11.03.2014 18:00 14,4 C 14,4 C 14,8 C 35 % 1027,2 hPa 0,0 l/m 0,2 km/h (0 Bft) N-NO 18 0 min 0,025 mm 14 W/m -0,9 C 14,4 C 3,2 km/h (1 Bft) 100 %
11.03.2014 18:10 13,9 C 13,9 C 14,4 C 36 % 1027,4 hPa 0,0 l/m 0,3 km/h (0 Bft) N-NO 27 0 min 0,000 mm 7 W/m -0,9 C 13,9 C 3,2 km/h (1 Bft) 100 %
11.03.2014 18:20 13,4 C 13,4 C 13,9 C 37 % 1027,3 hPa 0,0 l/m 0,0 km/h (0 Bft) N-NO 27 0 min 0,000 mm 0 W/m -1,0 C 13,4 C 1,6 km/h (1 Bft) 100 %
11.03.2014 18:30 12,9 C 12,9 C 13,4 C 37 % 1027,5 hPa 0,0 l/m 0,0 km/h (0 Bft) N-NO 27 0 min 0,000 mm 0 W/m -1,4 C 12,9 C 1,6 km/h (1 Bft) 100 %
11.03.2014 18:40 12,6 C 12,6 C 12,9 C 39 % 1027,5 hPa 0,0 l/m 0,0 km/h (0 Bft) N-NO 27 0 min 0,000 mm 0 W/m -1,0 C 12,6 C 1,6 km/h (1 Bft) 100 %
11.03.2014 18:50 12,3 C 12,3 C 12,6 C 39 % 1027,5 hPa 0,0 l/m 0,0 km/h (0 Bft) N-NO 27 0 min 0,000 mm 0 W/m -1,2 C 12,3 C 0,0 km/h (0 Bft) 100 %
11.03.2014 19:00 12,1 C 12,1 C 12,3 C 39 % 1027,7 hPa 0,0 l/m 0,0 km/h (0 Bft) N-NO 27 0 min 0,026 mm 0 W/m -1,4 C 12,1 C 0,0 km/h (0 Bft) 97 %
11.03.2014 19:10 11,8 C 11,8 C 12,1 C 40 % 1027,7 hPa 0,0 l/m 0,0 km/h (0 Bft) N-NO 27 0 min 0,000 mm 0 W/m -1,3 C 11,8 C 0,0 km/h (0 Bft) 98 %
11.03.2014 19:20 11,7 C 11,7 C 11,8 C 42 % 1027,8 hPa 0,0 l/m 0,0 km/h (0 Bft) N-NO 27 0 min 0,000 mm 0 W/m -0,8 C 11,7 C 1,6 km/h (1 Bft) 97 %
11.03.2014 19:30 11,3 C 11,3 C 11,7 C 44 % 1027,9 hPa 0,0 l/m 0,1 km/h (0 Bft) N-NO 27 0 min 0,000 mm 0 W/m -0,5 C 11,3 C 1,6 km/h (1 Bft) 97 %
11.03.2014 19:40 10,8 C 10,8 C 11,3 C 47 % 1028,0 hPa 0,0 l/m 0,0 km/h (0 Bft) N-NO 26 0 min 0,000 mm 0 W/m -0,1 C 10,8 C 1,6 km/h (1 Bft) 97 %
11.03.2014 19:50 10,3 C 10,3 C 10,8 C 49 % 1028,1 hPa 0,0 l/m 0,1 km/h (0 Bft) N-NO 26 0 min 0,000 mm 0 W/m 0,1 C 10,3 C 1,6 km/h (1 Bft) 97 %
11.03.2014 20:00 10,1 C 10,1 C 10,3 C 50 % 1028,1 hPa 0,0 l/m 0,0 km/h (0 Bft) N-NO 26 0 min 0,051 mm 0 W/m 0,2 C 10,1 C 0,0 km/h (0 Bft) 97 %
11.03.2014 20:10 9,9 C 9,9 C 10,1 C 52 % 1028,2 hPa 0,0 l/m 0,1 km/h (0 Bft) N-NO 26 0 min 0,000 mm 0 W/m 0,5 C 9,9 C 1,6 km/h (1 Bft) 97 %
11.03.2014 20:20 9,8 C 9,8 C 9,9 C 54 % 1028,2 hPa 0,0 l/m 0,2 km/h (0 Bft) N-NO 31 0 min 0,000 mm 0 W/m 0,9 C 9,8 C 3,2 km/h (1 Bft) 98 %
11.03.2014 20:30 9,6 C 9,6 C 9,8 C 55 % 1028,3 hPa 0,0 l/m 0,5 km/h (0 Bft) N-NO 33 0 min 0,000 mm 0 W/m 1,0 C 9,6 C 4,8 km/h (1 Bft) 97 %
11.03.2014 20:40 9,6 C 9,5 C 9,6 C 55 % 1028,4 hPa 0,0 l/m 2,0 km/h (1 Bft) NO 36 0 min 0,000 mm 0 W/m 1,0 C 9,6 C 6,4 km/h (2 Bft) 97 %
11.03.2014 20:50 10,3 C 9,6 C 10,3 C 52 % 1028,5 hPa 0,0 l/m 4,8 km/h (1 Bft) NO 34 0 min 0,000 mm 0 W/m 0,9 C 10,3 C 9,7 km/h (2 Bft) 97 %
11.03.2014 21:00 10,6 C 10,3 C 10,6 C 51 % 1028,6 hPa 0,0 l/m 3,5 km/h (1 Bft) NO 38 0 min 0,050 mm 0 W/m 0,9 C 10,6 C 8,0 km/h (2 Bft) 97 %
11.03.2014 21:10 10,4 C 10,4 C 10,6 C 51 % 1028,8 hPa 0,0 l/m 3,2 km/h (1 Bft) NO 45 0 min 0,000 mm 0 W/m 0,7 C 10,4 C 6,4 km/h (2 Bft) 100 %
11.03.2014 21:20 10,4 C 10,4 C 10,4 C 51 % 1028,8 hPa 0,0 l/m 4,8 km/h (1 Bft) NO 45 0 min 0,000 mm 0 W/m 0,7 C 10,4 C 8,0 km/h (2 Bft) 100 %
11.03.2014 21:30 10,3 C 10,3 C 10,4 C 52 % 1028,9 hPa 0,0 l/m 3,2 km/h (1 Bft) NO 45 0 min 0,000 mm 0 W/m 0,9 C 10,3 C 8,0 km/h (2 Bft) 100 %
11.03.2014 21:40 10,1 C 10,1 C 10,3 C 52 % 1029,1 hPa 0,0 l/m 3,2 km/h (1 Bft) NO 45 0 min 0,000 mm 0 W/m 0,7 C 10,1 C 9,7 km/h (2 Bft) 100 %
11.03.2014 21:50 10,0 C 9,9 C 10,1 C 53 % 1029,1 hPa 0,0 l/m 3,2 km/h (1 Bft) NO 45 0 min 0,000 mm 0 W/m 0,9 C 10,0 C 8,0 km/h (2 Bft) 100 %
11.03.2014 22:00 9,7 C 9,7 C 10,0 C 54 % 1029,4 hPa 0,0 l/m 1,6 km/h (1 Bft) NO 45 0 min 0,051 mm 0 W/m 0,9 C 9,7 C 8,0 km/h (2 Bft) 100 %
11.03.2014 22:10 9,5 C 9,5 C 9,7 C 55 % 1029,4 hPa 0,0 l/m 1,6 km/h (1 Bft) NO 45 0 min 0,000 mm 0 W/m 0,9 C 9,5 C 8,0 km/h (2 Bft) 100 %
11.03.2014 22:20 9,3 C 9,3 C 9,5 C 56 % 1029,4 hPa 0,0 l/m 1,6 km/h (1 Bft) N-NO 22 0 min 0,000 mm 0 W/m 1,0 C 9,3 C 8,0 km/h (2 Bft) 100 %
11.03.2014 22:30 9,2 C 9,2 C 9,3 C 57 % 1029,4 hPa 0,0 l/m 3,2 km/h (1 Bft) NO 45 0 min 0,000 mm 0 W/m 1,1 C 9,2 C 8,0 km/h (2 Bft) 100 %
11.03.2014 22:40 9,3 C 9,2 C 9,3 C 57 % 1029,3 hPa 0,0 l/m 6,4 km/h (2 Bft) NO 45 0 min 0,000 mm 0 W/m 1,2 C 9,3 C 11,3 km/h (2 Bft) 100 %
11.03.2014 22:50 9,2 C 9,2 C 9,3 C 57 % 1029,4 hPa 0,0 l/m 4,8 km/h (1 Bft) NO 45 0 min 0,000 mm 0 W/m 1,1 C 9,2 C 14,5 km/h (3 Bft) 100 %
11.03.2014 23:00 9,2 C 9,2 C 9,2 C 58 % 1029,5 hPa 0,0 l/m 6,4 km/h (2 Bft) NO 45 0 min 0,051 mm 0 W/m 1,4 C 9,2 C 14,5 km/h (3 Bft) 100 %
11.03.2014 23:10 9,1 C 9,1 C 9,2 C 59 % 1029,6 hPa 0,0 l/m 3,2 km/h (1 Bft) NO 45 0 min 0,000 mm 0 W/m 1,5 C 9,1 C 11,3 km/h (2 Bft) 100 %
11.03.2014 23:20 8,8 C 8,8 C 9,1 C 60 % 1029,6 hPa 0,0 l/m 1,6 km/h (1 Bft) NO 45 0 min 0,000 mm 0 W/m 1,5 C 8,8 C 8,0 km/h (2 Bft) 100 %
11.03.2014 23:30 8,6 C 8,6 C 8,8 C 61 % 1029,7 hPa 0,0 l/m 3,2 km/h (1 Bft) NO 45 0 min 0,000 mm 0 W/m 1,5 C 8,6 C 9,7 km/h (2 Bft) 100 %
11.03.2014 23:40 8,5 C 8,5 C 8,6 C 62 % 1029,7 hPa 0,0 l/m 4,8 km/h (1 Bft) NO 45 0 min 0,000 mm 0 W/m 1,6 C 8,5 C 9,7 km/h (2 Bft) 100 %
11.03.2014 23:50 8,3 C 8,3 C 8,5 C 63 % 1029,8 hPa 0,0 l/m 1,6 km/h (1 Bft) N-NO 22 0 min 0,000 mm 0 W/m 1,7 C 8,3 C 9,7 km/h (2 Bft) 100 %
_ Min-Zeit 06:50 06:50 07:00 15:00 00:00 - 00:20 - - - - - 15:00 06:50 07:00 03:40
Minimum _ 2,8 C 2,8 C 2,8 C 28 % 1023,3 hPa - 0,0 km/h (0 Bft) - - - - - -1,9 C 2,8 C 0,0 km/h (0 Bft) 89 %
_ Max-Zeit 15:00 15:00 15:00 07:20 23:50 00:00 02:50 - - 08:10 13:00 12:50 09:40 15:00 15:00 00:10
Maximum _ 16,7 C 16,6 C 16,7 C 75 % 1029,8 hPa 0,0 l/m 6,4 km/h
NO (2 Bft)
- - 10 min 0,356 mm 615 W/m 2,0 C 16,7 C 24,1 km/h
O-NO (4 Bft)
100 %
Durchschnitt _ 9,6 C 9,5 C 9,7 C 53 % 1026,6 hPa #0,0 l/m 2,1 km/h (1 Bft) NO - #7:50 h #2,540 mm 346 W/m -0,1 C 9,6 C 8,2 km/h (2 Bft) 99 %
PRIVATE WETTERSTATION BILLIGHEIM-ALLFELD - www.neckar-odenwald-wetter.de - Holger Sonntag